{"data":{"norad_id":59576,"epoch":"2026-05-25T03:40:18.497568Z","epoch_age_seconds":72491,"freshness":"FRESH","line1":"1 59576U 24076N   26145.15299187  .00001036  00000+0  47188-4 0  9992","line2":"2 59576  43.0050 297.4413 0002932 272.3590  87.6926 15.27569092118194","mean_motion":15.27569092,"eccentricity":0.0002932,"inclination_deg":43.005,"raan_deg":297.4413,"arg_perigee_deg":272.359,"mean_anomaly_deg":87.6926,"bstar":4.7188e-5,"rev_number":11819,"period_min":94.267421849617,"perigee_km":481.07004937009,"apogee_km":485.0934680502,"semimajor_km":6861.2187587101,"source":"CELESTRAK","updated_at":"2026-05-25T13:38:18.987018Z"}}